Time,TemperatureF,DewpointF,PressureIn,WindDirection,WindDirectionDegrees,WindSpeedMPH,WindSpeedGustMPH,Humidity,HourlyPrecipIn,Conditions,Clouds,dailyrainin,SoftwareType,DateUTC
2013-05-20 00:01:00,64.0,34.0,29.99,WNW,294,19.0,27.0,33,0.00,,,0.00,,2013-05-20 07:01:00,
2013-05-20 00:11:00,64.0,34.0,29.99,WNW,294,19.0,27.0,33,0.00,,,0.00,,2013-05-20 07:11:00,
2013-05-20 00:21:00,64.0,34.0,29.99,WNW,299,20.0,30.0,32,0.00,,,0.00,,2013-05-20 07:21:00,
2013-05-20 00:32:00,64.0,34.0,29.99,WNW,296,23.0,29.0,33,0.00,,,0.00,,2013-05-20 07:32:00,
2013-05-20 00:41:00,64.0,34.0,29.99,WNW,296,23.0,29.0,33,0.00,,,0.00,,2013-05-20 07:41:00,
2013-05-20 00:52:00,63.0,34.0,29.99,WNW,290,21.0,30.0,34,0.00,,,0.00,,2013-05-20 07:52:00,
2013-05-20 01:01:00,64.0,34.0,29.98,WNW,297,19.0,28.0,33,0.00,,,0.00,,2013-05-20 08:01:00,
2013-05-20 01:11:00,64.0,34.0,29.98,WNW,297,19.0,28.0,33,0.00,,,0.00,,2013-05-20 08:11:00,
2013-05-20 01:21:00,64.0,36.0,29.99,WNW,293,19.0,25.0,35,0.00,,,0.00,,2013-05-20 08:21:00,
2013-05-20 01:31:00,64.0,37.0,29.98,WNW,294,24.0,30.0,37,0.00,,,0.00,,2013-05-20 08:31:00,
2013-05-20 01:41:00,64.0,37.0,29.98,WNW,294,24.0,30.0,37,0.00,,,0.00,,2013-05-20 08:41:00,
2013-05-20 01:52:00,64.0,37.0,29.99,WNW,298,21.0,30.0,37,0.00,,,0.00,,2013-05-20 08:52:00,
2013-05-20 02:01:00,64.0,37.0,29.99,WNW,289,18.0,27.0,37,0.00,,,0.00,,2013-05-20 09:01:00,
2013-05-20 02:12:00,64.0,37.0,29.99,WNW,289,18.0,27.0,37,0.00,,,0.00,,2013-05-20 09:12:00,
2013-05-20 02:21:00,64.0,37.0,29.99,NW,316,13.0,23.0,37,0.00,,,0.00,,2013-05-20 09:21:00,
2013-05-20 02:32:00,64.0,37.0,29.99,NW,324,13.0,18.0,37,0.00,,,0.00,,2013-05-20 09:32:00,
2013-05-20 02:42:00,64.0,37.0,29.99,NW,324,13.0,18.0,37,0.00,,,0.00,,2013-05-20 09:42:00,
2013-05-20 02:52:00,64.0,39.0,30.00,NW,315,17.0,26.0,39,0.00,,,0.00,,2013-05-20 09:52:00,
2013-05-20 03:02:00,64.0,37.0,30.00,SSE,147,3.0,9.0,36,0.00,,,0.00,,2013-05-20 10:02:00,
2013-05-20 03:12:00,64.0,37.0,30.00,SSE,147,3.0,9.0,36,0.00,,,0.00,,2013-05-20 10:12:00,
2013-05-20 03:22:00,65.0,36.0,30.00,NW,321,5.0,11.0,34,0.00,,,0.00,,2013-05-20 10:22:00,
2013-05-20 03:32:00,62.0,37.0,30.00,SW,216,17.0,20.0,40,0.00,,,0.00,,2013-05-20 10:32:00,
2013-05-20 03:41:00,62.0,37.0,30.00,SW,216,17.0,20.0,40,0.00,,,0.00,,2013-05-20 10:41:00,
2013-05-20 03:52:00,61.0,38.0,30.00,SW,230,15.0,23.0,42,0.00,,,0.00,,2013-05-20 10:52:00,
2013-05-20 04:02:00,60.0,37.0,30.01,WSW,238,18.0,25.0,43,0.00,,,0.00,,2013-05-20 11:02:00,
2013-05-20 04:12:00,60.0,37.0,30.01,WSW,238,18.0,25.0,43,0.00,,,0.00,,2013-05-20 11:12:00,
2013-05-20 04:21:00,59.0,37.0,30.00,WSW,240,14.0,23.0,43,0.00,,,0.00,,2013-05-20 11:21:00,
2013-05-20 04:32:00,58.0,37.0,30.01,SW,215,10.0,16.0,45,0.00,,,0.00,,2013-05-20 11:32:00,
2013-05-20 04:41:00,58.0,37.0,30.01,SW,215,10.0,16.0,45,0.00,,,0.00,,2013-05-20 11:41:00,
2013-05-20 04:51:00,58.0,37.0,30.01,SW,226,15.0,19.0,45,0.00,,,0.00,,2013-05-20 11:51:00,
2013-05-20 05:01:00,57.0,36.0,30.02,SW,227,12.0,17.0,46,0.00,,,0.00,,2013-05-20 12:01:00,
2013-05-20 05:11:00,57.0,36.0,30.02,SW,227,12.0,17.0,46,0.00,,,0.00,,2013-05-20 12:11:00,
2013-05-20 05:21:00,56.0,36.0,30.03,WSW,239,11.0,14.0,47,0.00,,,0.00,,2013-05-20 12:21:00,
2013-05-20 05:31:00,55.0,36.0,30.03,SW,232,12.0,15.0,48,0.00,,,0.00,,2013-05-20 12:31:00,
2013-05-20 05:41:00,55.0,36.0,30.03,SW,232,12.0,15.0,48,0.00,,,0.00,,2013-05-20 12:41:00,
2013-05-20 05:52:00,54.0,35.0,30.04,WSW,252,7.0,17.0,49,0.00,,,0.00,,2013-05-20 12:52:00,
2013-05-20 06:01:00,53.0,35.0,30.04,WSW,237,13.0,17.0,51,0.00,,,0.00,,2013-05-20 13:01:00,
2013-05-20 06:11:00,53.0,35.0,30.04,WSW,237,13.0,17.0,51,0.00,,,0.00,,2013-05-20 13:11:00,
2013-05-20 06:21:00,54.0,36.0,30.05,WSW,244,11.0,17.0,51,0.00,,,0.00,,2013-05-20 13:21:00,
2013-05-20 06:31:00,53.0,36.0,30.06,WSW,240,13.0,17.0,52,0.00,,,0.00,,2013-05-20 13:31:00,
2013-05-20 06:41:00,53.0,36.0,30.06,WSW,240,13.0,17.0,52,0.00,,,0.00,,2013-05-20 13:41:00,
2013-05-20 06:52:00,53.0,36.0,30.06,WSW,243,14.0,19.0,52,0.00,,,0.00,,2013-05-20 13:52:00,
2013-05-20 07:01:00,54.0,35.0,30.06,WSW,242,13.0,19.0,49,0.00,,,0.00,,2013-05-20 14:01:00,
2013-05-20 07:11:00,54.0,35.0,30.06,WSW,242,13.0,19.0,49,0.00,,,0.00,,2013-05-20 14:11:00,
2013-05-20 07:21:00,56.0,36.0,30.07,WSW,246,9.0,15.0,46,0.00,,,0.00,,2013-05-20 14:21:00,
2013-05-20 07:31:00,58.0,35.0,30.07,WSW,244,6.0,11.0,42,0.00,,,0.00,,2013-05-20 14:31:00,
2013-05-20 07:41:00,58.0,35.0,30.07,WSW,244,6.0,11.0,42,0.00,,,0.00,,2013-05-20 14:41:00,
2013-05-20 07:52:00,63.0,28.0,30.08,ENE,73,9.0,14.0,26,0.00,,,0.00,,2013-05-20 14:52:00,
2013-05-20 08:01:00,69.0,26.0,30.08,ENE,74,11.0,16.0,20,0.00,,,0.00,,2013-05-20 15:01:00,
2013-05-20 08:33:00,69.0,26.0,30.08,East,88,14.0,18.0,20,0.00,,,0.00,,2013-05-20 15:33:00,
2013-05-20 08:53:00,69.0,24.0,30.08,East,88,17.0,23.0,18,0.00,,,0.00,,2013-05-20 15:53:00,
2013-05-20 09:02:00,70.0,25.0,30.08,East,87,13.0,22.0,18,0.00,,,0.00,,2013-05-20 16:02:00,
2013-05-20 09:22:00,70.0,23.0,30.08,ENE,74,15.0,23.0,17,0.00,,,0.00,,2013-05-20 16:22:00,
2013-05-20 09:32:00,70.0,22.0,30.08,ENE,66,19.0,26.0,16,0.00,,,0.00,,2013-05-20 16:32:00,
2013-05-20 09:42:00,70.0,22.0,30.08,ENE,66,19.0,26.0,16,0.00,,,0.00,,2013-05-20 16:42:00,
2013-05-20 09:52:00,70.0,20.0,30.09,East,82,18.0,26.0,15,0.00,,,0.00,,2013-05-20 16:52:00,
2013-05-20 10:02:00,70.0,20.0,30.09,ENE,76,16.0,26.0,15,0.00,,,0.00,,2013-05-20 17:02:00,
2013-05-20 10:11:00,70.0,20.0,30.09,ENE,76,16.0,26.0,15,0.00,,,0.00,,2013-05-20 17:11:00,
2013-05-20 10:22:00,71.0,23.0,30.09,ENE,78,17.0,24.0,16,0.00,,,0.00,,2013-05-20 17:22:00,
2013-05-20 10:32:00,72.0,22.0,30.08,East,85,16.0,22.0,15,0.00,,,0.00,,2013-05-20 17:32:00,
2013-05-20 10:44:00,72.0,22.0,30.08,East,85,16.0,22.0,15,0.00,,,0.00,,2013-05-20 17:44:00,
2013-05-20 10:53:00,72.0,22.0,30.09,East,86,12.0,21.0,15,0.00,,,0.00,,2013-05-20 17:53:00,
2013-05-20 11:02:00,72.0,20.0,30.09,ENE,74,9.0,25.0,14,0.00,,,0.00,,2013-05-20 18:02:00,
2013-05-20 11:12:00,74.0,22.0,30.09,ENE,77,13.0,22.0,14,0.00,,,0.00,,2013-05-20 18:12:00,
2013-05-20 11:23:00,74.0,22.0,30.09,ENE,77,13.0,22.0,14,0.00,,,0.00,,2013-05-20 18:23:00,
2013-05-20 11:32:00,74.0,22.0,30.08,ENE,59,9.0,21.0,14,0.00,,,0.00,,2013-05-20 18:32:00,
2013-05-20 11:41:00,74.0,22.0,30.08,ENE,59,9.0,21.0,14,0.00,,,0.00,,2013-05-20 18:41:00,
2013-05-20 11:55:00,74.0,20.0,30.08,ENE,63,10.0,21.0,13,0.00,,,0.00,,2013-05-20 18:55:00,
2013-05-20 12:04:00,75.0,21.0,30.08,East,82,13.0,22.0,13,0.00,,,0.00,,2013-05-20 19:04:00,
2013-05-20 12:11:00,75.0,21.0,30.07,ENE,76,10.0,22.0,13,0.00,,,0.00,,2013-05-20 19:11:00,
2013-05-20 12:21:00,75.0,21.0,30.07,ENE,76,10.0,22.0,13,0.00,,,0.00,,2013-05-20 19:21:00,
2013-05-20 12:32:00,76.0,20.0,30.07,ENE,61,10.0,21.0,12,0.00,,,0.00,,2013-05-20 19:32:00,
2013-05-20 12:41:00,76.0,20.0,30.07,ENE,58,12.0,26.0,12,0.00,,,0.00,,2013-05-20 19:41:00,
2013-05-20 12:52:00,76.0,20.0,30.07,ENE,58,12.0,26.0,12,0.00,,,0.00,,2013-05-20 19:52:00,
2013-05-20 13:01:00,77.0,20.0,30.07,ENE,71,10.0,17.0,12,0.00,,,0.00,,2013-05-20 20:01:00,
2013-05-20 13:11:00,77.0,20.0,30.07,ESE,106,9.0,15.0,12,0.00,,,0.00,,2013-05-20 20:11:00,
2013-05-20 13:21:00,77.0,20.0,30.07,ESE,106,9.0,15.0,12,0.00,,,0.00,,2013-05-20 20:21:00,
2013-05-20 13:32:00,77.0,20.0,30.06,East,83,8.0,13.0,12,0.00,,,0.00,,2013-05-20 20:32:00,
2013-05-20 13:42:00,78.0,19.0,30.06,East,79,7.0,17.0,11,0.00,,,0.00,,2013-05-20 20:42:00,
2013-05-20 13:52:00,78.0,19.0,30.06,East,79,7.0,17.0,11,0.00,,,0.00,,2013-05-20 20:52:00,
2013-05-20 14:01:00,78.0,19.0,30.06,ENE,68,9.0,13.0,11,0.00,,,0.00,,2013-05-20 21:01:00,
2013-05-20 14:11:00,78.0,19.0,30.05,East,86,8.0,17.0,11,0.00,,,0.00,,2013-05-20 21:11:00,
2013-05-20 14:21:00,78.0,19.0,30.05,East,86,8.0,17.0,11,0.00,,,0.00,,2013-05-20 21:21:00,
2013-05-20 14:32:00,78.0,19.0,30.06,WSW,240,1.0,14.0,11,0.00,,,0.00,,2013-05-20 21:32:00,
2013-05-20 14:42:00,78.0,19.0,30.05,ENE,75,8.0,14.0,11,0.00,,,0.00,,2013-05-20 21:42:00,
2013-05-20 14:53:00,78.0,19.0,30.05,ENE,75,8.0,14.0,11,0.00,,,0.00,,2013-05-20 21:53:00,
2013-05-20 15:02:00,79.0,20.0,30.04,WSW,256,2.0,9.0,11,0.00,,,0.00,,2013-05-20 22:02:00,
2013-05-20 15:12:00,78.0,19.0,30.03,SSE,164,1.0,14.0,11,0.00,,,0.00,,2013-05-20 22:12:00,
2013-05-20 15:22:00,78.0,19.0,30.03,SSE,164,1.0,14.0,11,0.00,,,0.00,,2013-05-20 22:22:00,
2013-05-20 15:33:00,79.0,18.0,30.03,North,3,2.0,15.0,10,0.00,,,0.00,,2013-05-20 22:33:00,
2013-05-20 15:42:00,79.0,18.0,30.03,North,3,2.0,15.0,10,0.00,,,0.00,,2013-05-20 22:42:00,
2013-05-20 15:52:00,78.0,17.0,30.02,SE,134,4.0,9.0,10,0.00,,,0.00,,2013-05-20 22:52:00,
2013-05-20 16:02:00,80.0,19.0,30.01,SSE,168,5.0,13.0,10,0.00,,,0.00,,2013-05-20 23:02:00,
2013-05-20 16:12:00,80.0,19.0,30.01,SSE,168,5.0,13.0,10,0.00,,,0.00,,2013-05-20 23:12:00,
2013-05-20 16:21:00,80.0,19.0,30.01,SSE,147,4.0,8.0,10,0.00,,,0.00,,2013-05-20 23:21:00,
2013-05-20 16:32:00,79.0,18.0,30.03,ENE,69,6.0,11.0,10,0.00,,,0.00,,2013-05-20 23:32:00,
2013-05-20 16:41:00,79.0,18.0,30.03,ENE,69,6.0,11.0,10,0.00,,,0.00,,2013-05-20 23:41:00,
2013-05-20 16:52:00,80.0,19.0,30.02,SSE,168,6.0,9.0,10,0.00,,,0.00,,2013-05-20 23:52:00,
2013-05-20 17:01:00,79.0,18.0,30.02,ESE,119,6.0,13.0,10,0.00,,,0.00,,2013-05-21 00:01:00,
2013-05-20 17:11:00,79.0,18.0,30.02,ESE,119,6.0,13.0,10,0.00,,,0.00,,2013-05-21 00:11:00,
2013-05-20 17:21:00,80.0,19.0,30.01,SE,142,4.0,7.0,10,0.00,,,0.00,,2013-05-21 00:21:00,
2013-05-20 17:31:00,80.0,19.0,30.01,SW,224,7.0,11.0,10,0.00,,,0.00,,2013-05-21 00:31:00,
2013-05-20 17:41:00,80.0,19.0,30.00,SE,125,4.0,9.0,10,0.00,,,0.00,,2013-05-21 00:41:00,
2013-05-20 17:52:00,80.0,19.0,30.00,SE,125,4.0,9.0,10,0.00,,,0.00,,2013-05-21 00:52:00,
2013-05-20 18:01:00,81.0,17.0,30.00,WSW,239,8.0,12.0,9,0.00,,,0.00,,2013-05-21 01:01:00,
2013-05-20 18:11:00,81.0,17.0,30.00,WSW,239,8.0,12.0,9,0.00,,,0.00,,2013-05-21 01:11:00,
2013-05-20 18:21:00,80.0,16.0,29.99,SSE,157,3.0,7.0,9,0.00,,,0.00,,2013-05-21 01:21:00,
2013-05-20 18:32:00,80.0,16.0,29.99,WSW,250,2.0,12.0,9,0.00,,,0.00,,2013-05-21 01:32:00,
2013-05-20 18:42:00,79.0,18.0,29.98,SSW,208,8.0,13.0,10,0.00,,,0.00,,2013-05-21 01:42:00,
2013-05-20 18:52:00,79.0,18.0,29.98,SSW,208,8.0,13.0,10,0.00,,,0.00,,2013-05-21 01:52:00,
2013-05-20 19:01:00,79.0,20.0,29.98,SW,216,9.0,14.0,11,0.00,,,0.00,,2013-05-21 02:01:00,
2013-05-20 19:11:00,78.0,28.0,29.98,WSW,254,7.0,14.0,16,0.00,,,0.00,,2013-05-21 02:11:00,
2013-05-20 19:21:00,78.0,28.0,29.98,WSW,254,7.0,14.0,16,0.00,,,0.00,,2013-05-21 02:21:00,
2013-05-20 19:32:00,77.0,30.0,29.99,West,270,7.0,17.0,18,0.00,,,0.00,,2013-05-21 02:32:00,
2013-05-20 19:41:00,76.0,29.0,29.99,West,275,8.0,15.0,18,0.00,,,0.00,,2013-05-21 02:41:00,
2013-05-20 19:52:00,76.0,29.0,29.99,West,275,8.0,15.0,18,0.00,,,0.00,,2013-05-21 02:52:00,
2013-05-20 20:01:00,75.0,31.0,29.99,West,270,8.0,17.0,20,0.00,,,0.00,,2013-05-21 03:01:00,
2013-05-20 20:11:00,74.0,30.0,30.00,West,266,8.0,15.0,20,0.00,,,0.00,,2013-05-21 03:11:00,
2013-05-20 20:21:00,74.0,30.0,30.00,West,266,8.0,15.0,20,0.00,,,0.00,,2013-05-21 03:21:00,
2013-05-20 20:33:00,73.0,32.0,30.00,West,277,15.0,20.0,22,0.00,,,0.00,,2013-05-21 03:33:00,
2013-05-20 20:42:00,73.0,34.0,30.00,West,281,14.0,20.0,24,0.00,,,0.00,,2013-05-21 03:42:00,
2013-05-20 20:53:00,73.0,34.0,30.00,West,281,14.0,20.0,24,0.00,,,0.00,,2013-05-21 03:53:00,
2013-05-20 21:03:00,72.0,36.0,30.00,West,281,16.0,24.0,27,0.00,,,0.00,,2013-05-21 04:03:00,
2013-05-20 21:12:00,72.0,36.0,30.00,West,281,16.0,24.0,27,0.00,,,0.00,,2013-05-21 04:12:00,
2013-05-20 21:22:00,72.0,36.0,30.01,West,280,14.0,23.0,27,0.00,,,0.00,,2013-05-21 04:22:00,
2013-05-20 21:33:00,71.0,35.0,30.00,WNW,288,11.0,20.0,27,0.00,,,0.00,,2013-05-21 04:33:00,
2013-05-20 21:42:00,71.0,35.0,30.00,WNW,288,11.0,20.0,27,0.00,,,0.00,,2013-05-21 04:42:00,
2013-05-20 21:52:00,71.0,36.0,30.01,WNW,286,14.0,21.0,28,0.00,,,0.00,,2013-05-21 04:52:00,
2013-05-20 22:02:00,70.0,35.0,30.01,West,279,11.0,20.0,28,0.00,,,0.00,,2013-05-21 05:02:00,
2013-05-20 22:11:00,70.0,34.0,30.01,West,274,9.0,17.0,27,0.00,,,0.00,,2013-05-21 05:11:00,
2013-05-20 22:21:00,70.0,34.0,30.01,West,274,9.0,17.0,27,0.00,,,0.00,,2013-05-21 05:21:00,
2013-05-20 22:31:00,69.0,34.0,30.01,West,268,9.0,16.0,27,0.00,,,0.00,,2013-05-21 05:31:00,
2013-05-20 22:42:00,70.0,33.0,30.01,WNW,289,14.0,19.0,25,0.00,,,0.00,,2013-05-21 05:42:00,
2013-05-20 22:52:00,70.0,33.0,30.01,WNW,289,14.0,19.0,25,0.00,,,0.00,,2013-05-21 05:52:00,
2013-05-20 23:01:00,71.0,32.0,30.01,WNW,294,14.0,21.0,24,0.00,,,0.00,,2013-05-21 06:01:00,
2013-05-20 23:11:00,71.0,32.0,30.01,WNW,294,14.0,21.0,24,0.00,,,0.00,,2013-05-21 06:11:00,
2013-05-20 23:21:00,70.0,32.0,30.01,WNW,290,12.0,23.0,24,0.00,,,0.00,,2013-05-21 06:21:00,
2013-05-20 23:31:00,70.0,32.0,30.01,West,273,10.0,17.0,24,0.00,,,0.00,,2013-05-21 06:31:00,
2013-05-20 23:41:00,70.0,32.0,30.01,West,273,10.0,17.0,24,0.00,,,0.00,,2013-05-21 06:41:00,
2013-05-20 23:51:00,70.0,30.0,30.01,WSW,254,9.0,18.0,23,0.00,,,0.00,,2013-05-21 06:51:00,